sat.trackr.live / text

‹ back to catalog

STARLINK-35502

NORAD 66435 · 2025-259P

PAYLOAD ACTIVE UNKNOWN

§ Identity

Operator
Country
US
Launch date
2025-11-11
Launch site
AFETR
Launch vehicle
Mass (kg)
RCS (m²)

Purposes: comms

External: N2YO · Heavens-Above · Gunter

§ Orbital elements

Epoch: 2026-05-25T04:17:23.972352Z

Period
94.27 min
Inclination
43.0010°
Eccentricity
0.0000949
Mean motion
15.27592200 rev/d
Perigee alt
482.4 km
Apogee alt
483.7 km
Semi-major
6,861.1 km
B*
8.1399e-4
RAAN
201.9996°
Arg perigee
259.3252°
Mean anomaly
100.7493°
Rev number
3,119

§ Raw data

STARLINK-355021 66435U 25259P   26145.17874968  .00022213  00000+0  81399-3 0  99972 66435  43.0010 201.9996 0000949 259.3252 100.7493 15.27592200 31191

JSON: /api/v1/satellites/66435 · /tle

For live sub-satellite position, see the globe view (requires WebGL).

§ Visibility from observer

Set your observer location to see the next 7 days of passes ≥ 10°. The values pass through the URL so the page stays shareable.

No JS? Fill the form by hand. The geolocation button needs JavaScript.